{"data":{"norad_id":55569,"intl_designator":"2023-020A","name":"STARLINK-5749","alt_names":[],"object_type":"PAYLOAD","status":"ACTIVE","operator":null,"country":"US","launch_date":"2023-02-12","launch_site_code":"AFETR","launch_vehicle":null,"mission":null,"orbit_class":"UNKNOWN","rcs_meters":null,"size_class":null,"mass_kg":null,"dimensions":null,"purposes":["comms"],"wikipedia_slug":null,"has_3d_model":false,"image_url":null,"decayed_at":null,"tle_current":{"epoch":"2026-09-20T16:44:03.168960Z","epoch_age_seconds":83343,"freshness":"FRESH","line1":"1 55569U 23020A   26263.69725890 -.00000872  00000+0 -22148-4 0  9991","line2":"2 55569  43.0056 347.5666 0002379 292.8227  67.2374 15.27575456199768","mean_motion":15.27575456,"eccentricity":0.0002379,"inclination_deg":43.0056,"raan_deg":347.5666,"arg_perigee_deg":292.8227,"mean_anomaly_deg":67.2374,"bstar":-2.2148e-5,"rev_number":19976,"period_min":94.267029124092,"perigee_km":481.43042303487,"apogee_km":484.69498185329,"semimajor_km":6861.1997024441,"source":"CELESTRAK","updated_at":"2026-09-21T09:00:33.262130Z"}}}